This is the latest recevied weather packets stored in our database for station/object dl1wer-13. If no packets are shown the sender has not sent any weather packets the latest 1 day(s).
| Time | Temp. | Humidity | Pressure | Rain* | Wind** | Luminosity | Snow |
|---|---|---|---|---|---|---|---|
| 1778005822 | 14.44° C | 75% | 1034.2 hPa | 0 mm | 0 m/s | - | - |
| 1778005222 | 14.44° C | 74% | 1034 hPa | 0 mm | 0 m/s | - | - |
| 1778004621 | 15° C | 73% | 1034.1 hPa | 0 mm | 0 m/s | - | - |
| 1778004023 | 15° C | 72% | 1033.9 hPa | 0 mm | 0.45 m/s, 171° | - | - |
| 1778003422 | 15.56° C | 71% | 1033.7 hPa | 0 mm | 0.45 m/s, 266° | - | - |
| 1778002821 | 15.56° C | 71% | 1033.6 hPa | 0 mm | 0.45 m/s, 137° | - | - |
| 1778002223 | 15.56° C | 72% | 1033.4 hPa | 0 mm | 0 m/s | - | - |
| 1778001622 | 16.11° C | 70% | 1033.3 hPa | 0 mm | 0 m/s | - | - |
| 1778001022 | 16.11° C | 70% | 1033.3 hPa | 0 mm | 0.45 m/s, 158° | - | - |
| 1778000423 | 16.11° C | 71% | 1033.1 hPa | 0 mm | 0.89 m/s, 214° | - | - |
| 1777999822 | 16.11° C | 72% | 1033.1 hPa | 0 mm | 0.45 m/s, 233° | - | - |
| 1777999221 | 16.11° C | 71% | 1033.3 hPa | 0 mm | 0.45 m/s, 235° | - | - |
| 1777998622 | 16.67° C | 69% | 1033.8 hPa | 0 mm | 0.45 m/s, 144° | - | - |
| 1777998022 | 16.67° C | 68% | 1033.8 hPa | 0 mm | 0.89 m/s, 279° | - | - |
| 1777997421 | 16.67° C | 67% | 1033.9 hPa | 0 mm | 0.89 m/s, 314° | - | - |
| 1777996822 | 17.22° C | 67% | 1033.8 hPa | 0 mm | 0.89 m/s, 163° | - | - |
| 1777996222 | 16.67° C | 68% | 1033.8 hPa | 0 mm | 0.89 m/s, 187° | - | - |
| 1777995622 | 16.67° C | 68% | 1033.7 hPa | 0 mm | 0.45 m/s, 210° | - | - |
| 1777995023 | 16.67° C | 68% | 1033.6 hPa | 0 mm | 0.89 m/s, 178° | - | - |
| 1777994422 | 16.67° C | 66% | 1033.8 hPa | 0 mm | 0.89 m/s, 156° | - | - |
| 1777993822 | 16.67° C | 66% | 1033.8 hPa | 0 mm | 1.34 m/s, 229° | - | - |
| 1777993222 | 16.67° C | 66% | 1033.6 hPa | 0 mm | 1.34 m/s, 244° | - | - |
| 1777992622 | 16.67° C | 70% | 1033.8 hPa | 0 mm | 1.34 m/s, 263° | - | - |
| 1777992021 | 16.67° C | 72% | 1033.9 hPa | 0 mm | 0.89 m/s, 162° | - | - |
| 1777991423 | 16.67° C | 72% | 1033.6 hPa | 0 mm | 0.89 m/s, 181° | - | - |
* Rain latest hour (hover to see other rain measurements)
** Current wind speed in m/s (hover to see current wind gust speed)